Regional Weather Roundup
Issued by NWS Wakefield, VA

Home | Current Version | Previous Version | Graphics & Text | Print | Product List | Glossary On
Versions: 1 2 3 4 5 6 7 8 9 10 11 12 13 14 15 16 17 18 19 20 21 22 23 24 25 26 27 28 29 30 31 32 33 34 35 36 37 38 39 40 41 42 43 44 45 46 47 48 49 50
000
ASUS41 KAKQ 091615
RWRAKQ

REGIONAL WEATHER ROUNDUP
NATIONAL WEATHER SERVICE WAKEFIELD VA
1100 AM EST TUE FEB 09 2016

Note: "fair" indicates few or no clouds below 12,000 feet with no
significant weather and/or obstructions to visibility. * = Denotes
station may not report precipitation (e.g., rain,snow,etc.),
thunder or fog.

VAZ042-051-052>054-056-091700-
NORTHERN VIRGINIA

CITY           SKY/WX    TMP DP  RH WIND       PRES   REMARKS
WASH NATIONAL  LGT RAIN  37  35  92 CALM      29.59S
DULLES         SNOW      34  32  92 N3        29.58S VSB 1/2
FORT BELVOIR   LGT RAIN  37  36  93 W9        29.59R
QUANTICO       LGT RAIN  39  36  89 NW9       29.60S
FREDERICKSBRG* CLOUDY    38  38  98 NW7       29.59R
STAFFORD*      CLOUDY    37  35  91 NW8       29.63R
WARRENTON      LGT RAIN  36  36 100 CALM      29.58S
CULPEPER*      LGT RAIN  37  35  90 N5        29.59S
MANASSAS*      NOT AVBL
LEESBURG*      LGT RAIN  36  36 100 CALM      29.58F
WINCHESTER     LGT SNOW  34  32  93 W12G21    29.57R VSB 3/4
FRONT ROYAL*   CLOUDY    34  34 100 CALM      29.56F
LURAY*         CLOUDY    34  32  93 W8        29.57S
$$

VAZ048-049-060>072-079>083-091700-
CENTRAL AND SOUTH CENTRAL VIRGINIA

CITY           SKY/WX    TMP DP  RH WIND       PRES   REMARKS
RICHMOND       PTSUNNY   42  33  70 W13       29.59S
CHESTERFIELD*  CLOUDY   N/A N/A N/A W8        29.61R
PETERSBURG*    PTSUNNY   46  27  46 W9        29.61F
HANOVER        CLOUDY    40  35  83 NW8       29.61S
TAPPAHANNOCK*  PTSUNNY   44  37  75 W9        29.58S
QUINTON*       CLOUDY    40  35  81 SW5       29.59S
CHARLOTTSVILLE CLOUDY    39  30  70 VRB5      29.58S
GORDONSVILLE*  CLOUDY    38  33  81 SW5       29.58S
ORANGE*        CLOUDY    41  36  81 SW9       29.60S
LOUISA*        CLOUDY    39  34  81 W8        29.57S
BUMPASS*       CLOUDY    37  34  87 W6        29.59S
FARMVILLE*     CLOUDY    44  30  59 NW8       29.59F
CREWE*         FAIR      41  31  66 W7G16     29.60F
FORT PICKETT*  CLOUDY    41  28  60 W12G18    29.61S
CHASE CITY*    CLOUDY    41  25  54 W9G16     29.63S
CLARKSVILLE*   CLOUDY    39  28  65 W8        29.63F
SOUTH HILL*    CLOUDY    41  30  64 W9        29.68S
LAWRENCEVILLE* CLOUDY    42  32  67 W7        29.62S
EMPORIA*       CLOUDY    43  32  65 W10G18    29.64S
$$

VAZ088>098-091700-
SOUTHEAST VIRGINIA

CITY           SKY/WX    TMP DP  RH WIND       PRES   REMARKS
NORFOLK        CLOUDY    42  35  76 SW9       29.59F
VIRGINIA BEACH CLOUDY    46  37  71 W9        29.59S
NORFOLK NAVAL  PTSUNNY   42  35  76 W10       29.61S
WEST POINT*    PTSUNNY   44  37  78 SW3       29.60S
SALUDA*        CLOUDY    43  39  87 CALM      29.58S
NEWPORT NEWS   CLOUDY    42  37  82 W8        29.60S
LANGLEY AFB    CLOUDY    41  37  84 W13       29.59S
FORT EUSTIS    CLOUDY    42  42  99 W6        29.59R
WILLIAMSBURG*  FAIR      45  39  81 W8        29.61S
HR EXEC AP*    FAIR      45  37  76 W9        29.62S
FRANKLIN*      CLOUDY    43  31  64 W8        29.62S
US460-WAKEFLD  FAIR      44  31  60 W9        29.60F
$$

VAZ020-022-025-037-045-091700-
WEST CENTRAL AND SOUTHWEST VIRGINIA

CITY           SKY/WX    TMP DP  RH WIND       PRES   REMARKS
STAUNTON*      CLOUDY    38  28  65 W7        29.59R
WAYNESBORO*    CLOUDY    33  23  65 W7G18     29.57S
HOT SPRINGS VA CLOUDY    21  21 100 W16G22    29.47S FOG     WCI   7
LYNCHBURG      CLOUDY    35  23  61 W9G16     29.62S
DANVILLE       CLOUDY    39  26  59 W12       29.66S
SOUTH BOSTON*  CLOUDY    40  24  52 W7        29.65R
MARTINSVILLE   FAIR      34  17  51 NW9       29.68R
ROANOKE        CLOUDY    32  18  56 NW21G26   29.65F WCI  20
BLACKSBURG     PTSUNNY   30  19  64 W9G20     29.64S
DUBLIN*        CLOUDY    28  19  68 NW7       29.63S
MARION*        LGT SNOW  24  17  75 W10G16    29.63R WCI  13
HILLSVILLE*    FLURRIES  23  16  74 NW10      29.58R WCI  13
RICHLANDS*     LGT SNOW  19  13  79 NW7       29.64S
WISE*          LGT SNOW  19  12  73 NW7       29.67R
ABINGDON*      CLOUDY    25  13  60 W13G20    29.69S WCI  14
$$

MDZ021>025-VAZ099-100-091700-
SOUTHERN MARYLAND AND THE DELMARVA PENINSULA

CITY           SKY/WX    TMP DP  RH WIND       PRES   REMARKS
PATUXENT RIVER LGT RAIN  39  36  89 E5        29.57S FOG
BAY BRIDGE APT DRIZZLE   36  36 100 CALM      29.58S
LEONARDTOWN    CLOUDY    37  36  93 E3        29.58S
DOVER          LGT RAIN  37  37 100 NE7       29.57S
GEORGETOWN     LGT RAIN  39  36  89 E8        29.57F
EASTON         LGT RAIN  37  37 100 E7        29.61F
CAMBRIDGE      CLOUDY    37  36  93 E6        29.57S
SALISBURY      LGT RAIN  40  38  93 NE7       29.57S
OCEAN CITY     LGT RAIN  41  37  86 NE5       29.57S
WALLOPS ISLAND CLOUDY    43  40  89 NE7       29.57F
ACCOMACK*      CLOUDY    43  37  81 E3        29.57S
$$

NCZ012>017-030>032-091700-
NORTH CENTRAL AND EASTERN NORTH CAROLINA

CITY           SKY/WX    TMP DP  RH WIND       PRES   REMARKS
ROANOKE RAPIDS FAIR      43  32  65 W9        29.64S
RALEIGH        PTSUNNY   42  28  57 VRB7      29.66F
ELIZABETH CITY MOSUNNY   45  36  70 W15       29.62R
AHOSKIE*       MOSUNNY   42  31  63 W3        29.64S
EDENTON*       SUNNY     48  32  55 W8G18     29.64S
CURRITUCK*     PTSUNNY   44  37  78 W12G18    29.62R
KILL DEVIL HLS SUNNY     46  37  70 W12G21    29.61R
MANTEO         SUNNY     45  35  67 NW14G21   29.63R
CAPE HATTERAS  MOSUNNY   46  36  68 W15G22    29.65R
TARBORO*       PTSUNNY   44  33  63 W9        29.67S
GOLDSBORO      PTSUNNY   43  43 100 SW8       29.67S
WASHINGTON     PTSUNNY   44  33  64 W13       29.66S
GREENVILLE     CLOUDY    45  32  61 W9        29.69F
NEW BERN       CLOUDY    45  34  65 W12       29.70R
WILMINGTON     SUNNY     46  29  51 W18       29.73F
$$

VAZ048-091700-
ELSEWHERE

CITY           SKY/WX    TMP DP  RH WIND       PRES   REMARKS
HARRISBURG PA  HVY SNOW  31  28  89 NE5       29.59F VSB 1/4
BALTIMORE      LGT SNOW  34  32  92 NE7       29.57F FOG
ANNAPOLIS      CLOUDY    36  34  92 NE3       29.58S
ANDREWS AFB    LGT RAIN  36  35  94 CALM      29.56S
PHILADELPHIA   CLOUDY    34  29  82 NE10      29.61F
HENDERSON NC   MOSUNNY   40  23  51 NW9G16    29.64S
GREENSBORO     PTSUNNY   39  16  39 NW16G24   29.65S
ROCKY MOUNT    CLOUDY    43  32  65 W9        29.67R
$$

VAZ100-091700-
MARINE

STATION/POSITION TIME  TEMP    WIND        PRES    WAVE   SWELL
                       AIR SEA DIR/SP/G            HT/PER HT/PER
                 (UTC) (F)     (DEG/KT/KT) (MB)    (FT/S) (FT/S)
BRANDYWINE LGT   1500   37      50/ 13/ 15 1001.4F
CAPE MAY NJ      1500   40 42   50/  9/ 11 1001.1F
LEWES DE         1500   40 41   70/ 15/ 16 1001.2F
15NM E FENWICK I 1550   42 43              1000.7S   9/15
OCEAN-CITY-INLET 1500   41 41   70/  4/  6 1000.5R
WACHAPREAGUE VA  1500   42 42   CALM  /  5 1001.5R
GOOSES REEF MD   1600   38 40  120/  8/ 10 1002.4F   1/ 2
COVE POINT MD    1500   37     130/  5/  7 1002.1F
SOLOMONS ISLAND  1500   38 41   90/  5/  6   N/A
BISHOPS HEAD MD  1500   39 40   60/  5/  7 1000.6S
PINEY POINT MD   1500          130/  4/  5   N/A
POTOMAC MD       1600   39 41   90/  2/  2 1000.4R   1
CAMBRIDGE MD     1500   38 40   90/  6/  6 1000.8S
LEWISETTA VA     1500   40 42   80/  7/  9 1000.7F
RAPPAHANNOCK LGT 1500           60/  4/  5 1001.3F
STINGRAY PT      1600   41 42  250/  2/  4 1001.4R   1
YORK RVR RNG VA  1500   40     270/ 10/ 12 1001.1S
YORKTOWN VA      1500   41 43  270/  7/  9 1001.6R
JAMESTOWN VA     1600   41 44  270/  6/  8   N/A
DOMINION TERM VA 1500   40     300/ 11/ 13 1002.2R
KIPTOPEKE VA     1500      43  280/ 12/ 14   N/A
CHES BAY BRIDGE  1500   39 44  260/ 10/ 12 1001.7R
CAPE HENRY VA    1500   39     260/  9/ 14   N/A
CHESAPEAKE LGHT  1500   45     300/ 12/ 12 1002.2S
WILLOUBY STN VA  1500   40     290/ 13/ 14   N/A
CAPE HENRY BUOY  1528      45                N/A     6/13   5/13
1ST LANDING BUOY 1600      44                N/A     4/ 7
CAPE CHARLES BUO 1526      44                N/A     6/14   7/14
OFFSHORE WE BUOY 1521      47                N/A     7/13   7/13
64NM E OF VA BCH 1550   46 51  300/ 17/ 23 1000.8R  12/14  10/14
DUCK PIER NC     1500   41     260/ 12/ 15 1002.0R
44100 DUCK FRF   1524      47                N/A     9/14   7/14
44056 DUCK FRF   1511      44                N/A     7/13   7/13
OREGON INLET NC  1500   44 45  270/  9/ 14 1002.7R
HATTERAS NC      1500   44 52  270/ 16/ 20 1003.2R
DIAMOND SHLS NC  1550   47 73  280/ 17/ 23 1003.9R  10/15  10/15
$$



USA.gov is the U.S. government's official web portal to all federal, state and local government web resources and services.